DW3649 Weather Reports


time (UTC)temp
F
wind
direction
speed
knots
gust
knots
rain 1hr
in
rain 24hr
in
rain mn
in
humidity
%
barometer
mb
20260507191537 69 117 0.0 0.0 0.00 0.00 0.00 37 1016.5
20260507190039 69 101 0.9 0.0 0.00 0.00 0.00 33 1016.4
20260507184535 68 121 0.9 0.0 0.00 0.00 0.00 34 1016.5
20260507183036 68 136 2.6 0.0 0.00 0.00 0.00 35 1016.3
20260507181534 68 148 1.7 0.0 0.00 0.00 0.00 39 1016.3
20260507180034 68 190 2.6 0.0 0.00 0.00 0.00 40 1016.3
20260507174546 68 121 2.6 0.0 0.00 0.00 0.00 41 1016.2
20260507173033 68 165 4.3 0.0 0.00 0.00 0.00 42 1016.2
20260507171542 70 148 4.3 0.0 0.00 0.00 0.00 38 1016.3
20260507170032 70 140 2.6 0.0 0.00 0.00 0.00 32 1015.7
20260507164531 70 175 4.3 0.0 0.00 0.00 0.00 33 1015.6
20260507163031 70 117 2.6 0.0 0.00 0.00 0.00 34 1015.7
20260507161533 70 148 3.5 0.0 0.00 0.00 0.00 36 1015.8
20260507160038 71 156 5.2 0.0 0.00 0.00 0.00 34 1015.6
20260507154529 71 141 5.2 0.0 0.00 0.00 0.00 34 1015.8
20260507153029 71 157 5.2 0.0 0.00 0.00 0.00 34 1016.0
20260507151529 71 168 4.3 0.0 0.00 0.00 0.00 35 1016.3
20260507150036 71 165 4.3 0.0 0.00 0.00 0.00 35 1016.2
20260507144528 71 136 6.1 0.0 0.00 0.00 0.00 35 1016.1
20260507143027 71 235 5.2 0.0 0.00 0.00 0.00 37 1016.2
20260507141526 71 171 6.1 0.0 0.00 0.00 0.00 34 1016.1
20260507140036 72 213 6.1 0.0 0.00 0.00 0.00 36 1015.8
20260507134525 73 142 7.0 0.0 0.00 0.00 0.00 31 1015.7
20260507133024 73 150 6.1 0.0 0.00 0.00 0.00 29 1015.6
20260507131540 73 172 7.0 0.0 0.00 0.00 0.00 32 1015.5
20260507130022 73 140 6.1 0.0 0.00 0.00 0.00 32 1015.7
20260507124522 73 158 4.3 0.0 0.00 0.00 0.00 34 1016.1
20260507123026 72 156 4.3 0.0 0.00 0.00 0.00 39 1016.2
20260507121519 73 190 6.1 0.0 0.00 0.00 0.00 38 1016.3
20260507120028 73 155 5.2 0.0 0.00 0.00 0.00 39 1016.3
20260507114551 73 209 6.1 0.0 0.00 0.00 0.00 40 1016.3
20260507113118 72 144 6.1 0.0 0.00 0.00 0.00 45 1016.5
20260507111550 71 139 5.2 0.0 0.00 0.00 0.00 54 1016.7
20260507110049 72 130 6.1 0.0 0.00 0.00 0.00 55 1016.4
20260507104557 72 209 7.0 0.0 0.00 0.00 0.00 53 1016.5
20260507103045 72 227 6.1 0.0 0.00 0.00 0.00 47 1016.0
20260507101545 72 126 4.3 0.0 0.00 0.00 0.00 45 1015.9
20260507100052 69 171 2.6 0.0 0.00 0.00 0.00 70 1016.1
20260507094540 69 168 3.5 0.0 0.00 0.00 0.00 70 1016.1
20260507093039 69 179 4.3 0.0 0.00 0.00 0.00 67 1016.2
20260507091541 69 222 4.3 0.0 0.00 0.00 0.00 65 1016.1
20260507090036 69 138 0.9 0.0 0.00 0.00 0.00 64 1016.0
20260507084548 69 156 0.9 0.0 0.00 0.00 0.00 64 1016.2
20260507083032 69 194 1.7 0.0 0.00 0.00 0.00 62 1016.2
20260507081531 68 157 2.6 0.0 0.00 0.00 0.00 60 1016.0
20260507080030 68 144 3.5 0.0 0.00 0.00 0.00 59 1016.1
20260507074528 68 169 2.6 0.0 0.00 0.00 0.00 58 1016.0
20260507073028 68 157 1.7 0.0 0.00 0.00 0.00 53 1015.8
20260507071532 67 165 2.6 0.0 0.00 0.00 0.00 55 1015.8
20260507070027 67 152 4.3 0.0 0.00 0.00 0.00 57 1016.0
20260507064525 66 188 4.3 0.0 0.00 0.00 0.00 58 1015.9
20260507063024 66 152 3.5 0.0 0.00 0.00 0.00 58 1015.8
20260507061530 66 190 4.3 0.0 0.00 0.00 0.00 57 1015.8
20260507060033 67 157 3.5 0.0 0.00 0.00 0.00 52 1015.7
20260507054533 68 79 0.0 0.0 0.00 0.00 0.00 51 1015.5
20260507053017 68 79 0.0 0.0 0.00 0.00 0.00 53 1015.0
20260507051513 66 80 0.0 0.0 0.00 0.00 0.00 55 1014.9
20260507050033 65 83 0.0 0.0 0.00 0.00 0.00 58 1014.9
20260507044516 64 90 0.0 0.0 0.00 0.00 0.00 58 1014.9
20260507043009 63 90 0.0 0.0 0.00 0.00 0.00 59 1014.9
20260507041508 62 90 0.0 0.0 0.00 0.00 0.00 62 1014.9
20260507040013 60 90 0.0 0.0 0.00 0.00 0.00 63 1015.0
20260507034509 60 90 0.0 0.0 0.00 0.00 0.00 65 1015.1
20260507033006 60 90 0.0 0.0 0.00 0.00 0.00 65 1014.9
20260507031507 60 90 0.0 0.0 0.00 0.00 0.00 66 1014.8
20260507030007 60 90 0.0 0.0 0.00 0.00 0.00 66 1014.8
20260507024504 60 90 0.0 0.0 0.00 0.00 0.00 64 1014.7
20260507023003 61 90 0.0 0.0 0.00 0.00 0.00 64 1014.7
20260507021501 61 90 0.0 0.0 0.00 0.00 0.00 62 1014.5
20260507020101 61 90 0.9 0.0 0.00 0.00 0.00 62 1014.7
20260507014600 61 90 0.0 0.0 0.00 0.00 0.00 59 1014.7
20260507013058 61 90 0.0 0.0 0.00 0.00 0.00 57 1014.5
20260507011600 61 90 0.0 0.0 0.00 0.00 0.00 55 1014.3
20260507010056 61 90 0.0 0.0 0.00 0.00 0.00 55 1014.0
20260507004555 62 90 0.0 0.0 0.00 0.00 0.00 56 1014.0
20260507003053 62 90 0.0 0.0 0.00 0.00 0.00 56 1013.8
20260507001554 62 90 0.0 0.0 0.00 0.00 0.00 56 1013.8
20260507000053 62 90 0.0 0.0 0.00 0.00 0.00 55 1014.1
20260506234603 62 90 0.0 0.0 0.00 0.00 0.00 55 1014.4
20260506233046 62 90 0.0 0.0 0.00 0.00 0.00 54 1014.5
20260506231544 63 90 0.0 0.0 0.00 0.00 0.00 53 1014.6
20260506230043 63 90 0.0 0.0 0.00 0.00 0.00 53 1014.7
20260506224545 63 90 0.0 0.0 0.00 0.00 0.00 52 1014.7
20260506223048 63 90 0.0 0.0 0.00 0.00 0.00 53 1014.7
20260506221540 63 90 0.0 0.0 0.00 0.00 0.00 53 1014.8
20260506220039 63 90 0.0 0.0 0.00 0.00 0.00 53 1014.8
20260506214540 63 90 0.9 0.0 0.00 0.00 0.00 52 1014.8
20260506213034 64 90 0.0 0.0 0.00 0.00 0.00 51 1014.9
20260506211532 65 90 0.0 0.0 0.00 0.00 0.00 51 1015.2
20260506210035 65 90 0.0 0.0 0.00 0.00 0.00 54 1015.3
20260506204545 65 90 0.9 0.0 0.00 0.00 0.00 51 1015.4
20260506203030 65 90 0.0 0.0 0.00 0.00 0.00 47 1015.4
20260506201532 66 90 0.0 0.0 0.00 0.00 0.00 46 1015.2
20260506200025 67 90 0.0 0.0 0.00 0.00 0.00 46 1015.2
20260506194523 67 90 0.0 0.0 0.00 0.00 0.00 45 1015.0
20260506193022 67 90 0.0 0.0 0.00 0.00 0.00 44 1014.8